Temperature
19 18 18 18 18 17 17 17 17 17 16 16 16 16 16 16 16 16 15 15 15 15 15 15 15 15 14 14 14 14 14 14 14 14 14 14 14 14 14 13 13 13 14
19 18 18 17 17 17 17 17 17 17 16 16 16 16 16 15 15 15 15 15 15 15 15 14 14 14 14 14 14 14 14 14 14 14 14 14 14 13 13 13 13 13 13
19 18 18 17 17 17 17 17 17 16 16 16 16 15 15 15 15 15 15 15 15 15 14 14 14 14 14 14 14 14 14 14 13 14 14 14 14 14 13 13 13 13 13
19 18 17 17 17 17 17 17 16 16 16 16 16 15 15 15 15 15 15 15 15 14 14 14 14 14 14 14 14 14 13 13 13 13 13 14 13 14 13 13 13 13 13
18 18 17 17 17 16 16 16 16 16 16 16 15 15 15 15 15 15 15 14 14 14 14 14 14 14 14 14 14 14 13 13 13 13 13 13 13 13 13 13 13 12 12
18 17 17 17 16 16 16 16 16 16 16 15 15 15 15 15 14 14 14 14 14 14 14 14 14 14 14 14 14 13 13 13 13 13 13 13 13 13 13 13 13 12 12
18 17 17 16 16 16 16 16 16 15 15 15 15 15 15 15 14 14 14 14 14 14 13 13 13 13 13 13 13 13 13 13 13 13 13 13 13 13 12 13 12 12 12
18 17 16 16 16 16 16 15 15 15 15 15 15 15 14 14 14 14 14 14 14 13 13 13 13 13 13 13 13 13 13 13 13 13 13 12 12 12 12 12 12 12 12
17 17 16 16 16 16 16 15 15 15 15 15 14 14 14 14 14 14 14 14 13 13 13 13 13 13 13 13 13 13 13 13 12 12 12 12 12 12 12 12 12 12 12
17 16 16 16 15 15 15 15 15 14 14 14 14 14 14 14 14 14 13 13 13 13 13 13 13 13 13 13 13 13 13 12 12 12 12 12 12 12 12 11 11 11 11
17 16 16 15 15 15 15 15 14 14 14 14 14 14 14 13 13 13 13 13 13 13 13 13 13 13 12 12 12 12 12 12 12 12 12 12 12 12 11 11 11 11 11
17 16 15 15 15 14 14 14 14 14 14 13 13 13 13 13 13 13 13 13 13 13 13 13 13 12 12 12 12 12 12 12 12 12 12 12 11 11 11 11 11 11 10
16 15 15 15 14 14 14 14 14 14 13 13 13 13 13 13 13 13 13 13 13 13 13 12 12 12 12 12 12 12 12 11 11 11 11 11 11 11 11 11 11 10 10
15 15 15 14 14 14 14 13 13 13 13 13 13 13 13 13 13 13 13 13 12 12 12 12 12 12 12 12 12 11 11 11 11 11 11 11 11 11 11 11 10 10 10
15 15 14 14 14 13 13 13 13 13 13 13 13 13 13 13 12 12 12 12 12 12 12 12 12 12 12 11 11 11 11 11 11 11 11 11 11 11 11 10 10 10 10
15 14 14 14 13 13 13 13 12 12 12 12 12 12 12 12 12 12 12 12 12 12 12 12 11 11 11 11 11 11 11 11 11 11 11 11 11 11 11 10 10 10 10
14 14 14 14 13 13 13 12 12 12 12 12 12 12 12 12 12 11 11 11 11 11 11 11 11 11 11 11 11 11 11 11 10 10 10 10 10 10 10 10 10 10 10
14 14 14 13 13 13 12 12 12 12 11 11 11 11 11 11 11 11 11 11 11 11 11 11 11 11 11 11 11 11 10 10 10 10 10 10 10 10 10 10 10 10 9
14 14 13 13 13 12 12 12 12 11 11 11 11 11 11 11 11 11 11 11 11 11 10 10 10 10 10 10 10 10 10 10 10 10 10 10 10 10 10 9 9 9 9
13 13 13 13 12 12 12 12 11 11 11 11 11 11 11 11 11 11 10 10 10 10 10 10 10 10 10 10 10 10 9 9 9 9 9 9 9 9 9 9 9 9 9
13 13 13 12 12 12 12 11 11 11 11 11 11 10 10 10 10 10 10 10 10 10 10 10 10 10 10 10 10 9 9 9 9 9 9 9 9 9 9 9 9 9 9
13 12 12 12 12 11 11 11 11 11 11 10 10 10 10 10 10 10 10 9 9 9 9 9 9 9 9 9 9 9 9 9 8 8 8 8 9 9 9 8 8 8 8
12 12 12 12 11 11 11 11 11 10 10 10 10 10 10 10 10 9 9 9 9 9 9 9 9 9 9 8 9 9 9 8 8 8 8 8 8 8 8 8 8 8 8
12 12 11 11 11 11 10 10 10 10 10 10 10 9 9 9 9 9 9 9 9 9 9 8 8 8 8 8 8 8 8 8 8 8 8 8 8 8 8 8 8 7 7
11 11 11 11 11 10 10 10 10 10 9 9 9 9 9 9 9 9 9 9 8 8 8 8 8 8 8 8 8 8 8 8 8 7 8 7 7 7 7 7 7 7 7
11 10 10 10 10 10 10 10 10 10 9 9 9 9 9 9 8 8 8 8 8 8 8 8 8 8 8 8 8 8 8 7 7 7 7 7 7 7 7 7 7 7 7
Wind_Speed
4 4 3 3 3 3 2 3 3 3 3 2 2 1 1 1 1 1 1 1 1 1 2 1 2 2 1 1 2 2 3 2 2 2 3 3 3 3 3 3 3 4 5
4 4 3 3 3 3 3 3 3 2 2 2 2 1 1 1 1 1 1 0 1 1 2 2 2 2 1 2 2 2 1 1 0 0 0 1 2 2 2 2 2 3 4
3 4 3 3 3 3 3 3 2 2 3 3 2 2 2 1 1 1 1 0 1 1 1 1 2 2 2 2 2 2 1 1 0 1 1 1 0 0 1 2 1 2 2
3 3 3 3 3 2 2 3 3 2 3 3 3 3 2 2 2 1 1 1 1 2 2 1 2 2 1 2 2 1 1 1 1 0 1 2 0 1 0 1 1 2 2
4 3 3 3 3 2 2 2 3 2 2 3 3 3 3 2 1 2 2 1 1 2 2 1 2 2 2 2 2 2 2 1 2 1 1 1 1 2 1 1 0 1 1
3 3 3 3 3 2 2 2 2 2 2 3 4 4 4 3 3 2 2 2 2 1 2 2 2 2 2 2 2 2 2 2 2 2 2 1 1 1 1 2 1 1 1
4 4 3 3 2 2 2 2 3 3 3 4 4 4 4 4 4 3 3 2 2 2 2 2 2 2 2 2 2 2 2 2 2 2 2 2 2 2 2 1 1 1 1
3 3 3 2 2 2 1 2 2 3 3 3 4 3 4 3 3 3 3 2 2 2 2 2 2 2 2 2 2 2 2 2 2 2 3 3 2 2 2 2 1 2 1
3 3 3 2 2 1 1 1 1 1 2 2 3 3 3 3 3 3 2 2 2 1 2 2 3 2 3 3 3 2 3 2 2 2 3 2 2 2 2 2 2 2 3
3 3 3 2 1 1 1 1 1 1 1 2 2 2 3 3 2 3 3 2 2 2 2 3 3 3 3 3 3 3 2 3 2 2 2 2 2 2 2 2 2 3 3
4 3 3 2 2 1 1 1 1 1 1 1 2 2 2 2 2 2 2 2 2 2 3 3 3 3 3 3 3 3 3 4 3 3 3 3 2 2 2 2 2 3 2
3 3 2 2 2 2 1 1 1 1 1 1 1 1 1 2 2 2 2 2 2 2 2 3 3 3 3 3 4 4 4 4 4 4 3 3 2 2 2 2 3 3 2
2 2 2 2 2 2 1 1 1 1 1 1 1 1 1 1 1 1 2 2 3 3 3 3 3 3 4 4 4 4 4 4 4 4 4 3 3 3 3 3 3 2 2
2 2 2 2 2 2 1 1 1 1 1 2 2 2 1 1 1 1 2 2 2 3 3 3 3 3 4 4 4 4 4 4 4 4 4 4 4 4 4 3 3 3 3
1 2 2 2 2 2 2 2 1 2 2 2 2 1 1 1 1 1 1 2 2 3 3 3 3 3 3 3 3 4 4 4 4 4 4 4 3 2 3 3 4 4 3
2 2 2 2 2 3 2 2 1 2 2 2 2 1 2 2 2 2 2 1 2 2 2 2 2 3 3 1 2 4 4 4 5 5 5 4 4 4 4 4 4 4 5
2 2 2 2 3 3 2 2 2 2 1 1 1 2 2 2 2 2 2 2 2 2 2 2 3 3 2 2 3 5 5 5 5 5 5 4 4 5 5 5 6 5 5
3 3 3 3 3 2 2 2 2 2 2 2 2 2 2 2 2 2 2 3 2 2 2 3 3 3 2 1 2 4 6 5 5 6 6 5 5 5 5 5 5 5 5
3 3 3 3 2 2 3 3 3 2 2 2 2 2 2 2 2 3 3 3 2 2 3 3 3 4 3 2 3 4 4 4 5 5 5 6 6 3 4 6 6 5 4
2 2 2 2 2 2 3 4 4 4 3 3 3 3 3 3 3 3 3 3 3 3 3 3 4 4 4 2 3 5 4 4 4 3 4 4 5 4 5 7 6 6 5
2 2 2 2 2 2 3 4 4 4 3 3 3 2 3 3 3 3 2 2 3 3 3 4 4 4 4 2 3 4 4 4 4 4 3 3 4 5 6 8 7 6 5
2 2 2 2 2 2 3 4 4 3 3 3 3 3 3 3 2 2 2 3 3 3 3 4 3 3 3 3 3 4 5 5 5 4 4 3 3 5 7 7 5 4 5
2 2 2 2 2 3 4 4 4 3 3 3 3 3 3 3 3 3 3 3 3 3 3 4 4 3 3 3 3 4 4 5 5 4 3 3 4 5 5 6 6 6 5
3 2 3 3 3 3 4 4 3 3 3 4 3 3 3 3 4 3 3 3 4 4 4 4 4 4 4 3 3 3 3 4 4 4 3 3 4 5 4 4 5 5 5
3 3 3 3 3 3 4 3 3 3 4 4 4 4 4 3 3 3 3 4 3 4 4 5 5 5 5 4 4 4 4 4 4 4 4 3 3 4 4 4 4 5 5
3 3 3 3 3 3 3 3 3 4 5 4 4 4 3 3 3 3 3 2 3 3 4 5 5 5 4 3 3 4 5 4 3 4 4 4 4 5 5 5 5 5 5
Wind_Direction
155 148 147 154 166 165 171 159 162 161 154 157 165 151 143 135 111 83 88 112 128 131 123 132 127 116 103 109 98 99 114 106 92 94 87 95 78 66 67 54 53 56 50
155 149 157 162 174 170 176 169 163 162 164 167 174 163 149 149 109 99 80 105 143 138 139 138 138 135 133 139 128 129 123 119 108 74 111 128 126 80 64 59 57 50 52
168 164 171 171 174 175 180 174 171 171 179 170 162 140 136 163 169 169 160 103 177 166 160 154 152 152 165 157 165 176 173 181 222 335 324 307 26 54 109 64 61 50 42
183 176 173 171 171 172 183 184 177 181 180 183 188 186 198 210 204 200 180 186 205 198 182 177 179 175 176 173 188 194 206 223 225 249 304 313 6 268 123 131 78 48 31
187 183 175 169 163 161 176 194 192 194 190 201 200 211 214 211 191 191 186 199 197 205 197 205 211 204 195 198 204 213 237 240 265 256 258 277 233 247 268 267 302 28 25
179 170 159 157 151 149 163 186 203 207 211 212 209 208 207 204 196 193 198 202 195 207 200 213 229 228 213 207 213 227 235 254 268 262 239 248 260 253 256 261 253 322 350
174 165 158 159 154 158 173 196 209 212 215 217 215 213 209 211 214 213 207 210 209 214 214 213 225 233 227 219 219 227 236 240 246 260 265 266 275 265 256 244 263 295 295
171 169 165 161 165 173 191 202 210 214 218 220 217 212 207 215 228 229 224 212 222 233 225 216 221 220 219 223 222 237 231 242 242 252 256 258 260 250 235 232 242 268 263
181 176 169 166 169 175 188 191 197 200 211 222 218 214 211 209 218 227 221 218 224 241 236 220 223 217 215 224 222 233 230 236 246 248 246 250 244 233 234 227 236 262 269
190 182 176 174 169 158 158 150 187 193 194 212 212 205 216 216 217 216 212 219 223 217 226 227 221 220 211 214 219 229 229 227 231 246 244 237 234 220 223 224 241 263 266
192 187 182 175 159 144 146 146 165 168 177 196 200 199 204 216 217 219 225 234 238 228 230 224 220 218 212 212 213 228 223 227 223 220 222 223 223 219 220 223 235 245 252
190 184 176 166 164 157 156 145 146 142 135 161 169 180 193 203 217 227 230 234 241 236 236 230 226 220 223 222 221 227 230 230 227 222 219 220 207 221 222 225 232 234 238
177 173 176 178 180 178 181 155 140 134 131 160 163 171 186 199 225 236 231 237 239 230 230 232 234 224 224 232 234 233 231 230 230 225 221 217 213 223 220 220 228 228 219
182 184 195 194 190 194 205 204 179 165 171 180 185 191 198 210 221 232 232 228 239 239 235 238 241 234 229 234 236 235 233 231 229 226 224 221 222 230 229 224 227 225 217
211 206 213 204 197 201 210 208 202 194 194 191 204 213 211 208 222 222 236 241 240 246 242 244 246 239 234 235 240 241 239 235 232 228 227 223 226 255 249 241 230 220 219
230 218 222 215 212 207 209 203 204 202 201 204 210 213 218 206 212 218 219 226 236 242 248 245 244 239 235 191 236 254 242 240 238 234 231 221 214 224 231 248 249 244 232
239 237 234 230 225 213 203 206 203 196 199 222 242 235 219 204 203 206 206 217 223 227 241 243 242 246 234 169 219 249 257 245 244 240 233 229 226 221 231 222 221 236 250
246 242 242 233 230 215 208 208 195 192 202 216 248 236 215 207 202 203 212 228 237 230 240 251 252 254 251 201 228 243 252 251 248 244 241 237 235 228 230 227 227 232 231
253 245 240 230 224 214 212 208 204 208 214 227 247 233 216 213 214 216 224 231 236 242 249 254 259 259 247 198 231 247 252 256 256 250 249 246 244 222 223 228 228 232 236
268 254 237 227 222 224 216 217 220 222 225 230 234 234 222 219 220 227 232 232 234 246 255 256 261 266 268 215 226 250 256 259 262 262 261 251 253 229 221 232 233 237 237
289 266 233 227 223 228 226 230 232 233 230 231 228 224 217 219 221 231 236 243 244 250 257 262 265 268 274 243 217 243 258 263 263 261 262 259 227 227 231 245 244 246 244
299 273 252 244 222 222 231 240 245 244 232 222 217 220 215 212 219 228 242 252 256 258 262 268 274 276 272 271 242 238 255 273 263 263 261 261 236 240 237 242 247 236 234
294 272 260 252 235 225 233 248 252 243 229 223 224 225 228 220 221 231 241 250 253 259 265 267 270 273 273 262 235 229 240 254 259 263 280 275 248 252 245 235 226 222 229
290 276 261 257 252 240 240 251 251 235 222 224 229 231 233 239 233 232 241 251 256 257 262 265 266 272 275 276 270 257 247 239 250 261 255 237 235 244 253 237 228 233 235
282 270 261 258 256 250 242 242 243 232 229 229 230 234 235 239 247 243 251 257 262 267 262 266 269 271 271 283 299 278 264 259 259 261 259 260 256 251 244 239 236 235 235
284 276 269 265 261 255 253 243 237 238 237 236 240 241 239 241 247 253 256 256 250 254 258 267 273 273 277 293 276 270 276 274 256 250 246 248 248 250 248 244 241 239 239
Height
1540 1541 1542 1543 1544 1544 1545 1546 1546 1547 1547 1547 1547 1548 1548 1548 1548 1548 1548 1548 1548 1548 1548 1548 1547 1547 1547 1547 1547 1547 1547 1546 1546 1546 1546 1546 1546 1545 1544 1544 1544 1544 1543
1539 1540 1541 1542 1543 1543 1544 1545 1545 1546 1546 1546 1546 1547 1547 1547 1547 1547 1547 1547 1547 1547 1547 1547 1547 1547 1546 1546 1546 1546 1546 1546 1546 1546 1546 1547 1547 1546 1545 1545 1544 1544 1543
1537 1539 1540 1541 1541 1542 1543 1544 1544 1545 1545 1545 1545 1546 1546 1546 1546 1546 1546 1546 1546 1546 1546 1546 1546 1546 1546 1546 1545 1545 1546 1546 1546 1546 1547 1546 1546 1546 1546 1545 1544 1543 1543
1536 1538 1539 1539 1540 1541 1542 1542 1543 1543 1544 1544 1544 1544 1544 1545 1545 1545 1545 1545 1545 1545 1545 1545 1545 1545 1545 1545 1545 1545 1545 1545 1545 1545 1545 1546 1545 1545 1545 1545 1544 1543 1542
1535 1536 1537 1538 1539 1539 1540 1541 1541 1542 1542 1542 1542 1543 1543 1543 1543 1543 1544 1544 1544 1544 1544 1544 1544 1544 1544 1544 1544 1544 1544 1544 1544 1544 1544 1544 1544 1544 1544 1544 1544 1543 1542
1534 1535 1536 1536 1537 1537 1538 1539 1539 1540 1540 1540 1540 1541 1541 1541 1542 1542 1542 1542 1542 1542 1542 1542 1542 1542 1542 1542 1542 1542 1542 1543 1543 1543 1543 1543 1543 1543 1543 1542 1542 1542 1541
1532 1533 1534 1535 1535 1536 1536 1536 1537 1537 1537 1538 1538 1539 1539 1539 1540 1540 1540 1540 1541 1541 1540 1540 1540 1541 1541 1541 1541 1541 1541 1541 1541 1541 1541 1541 1541 1541 1541 1541 1541 1540 1540
1531 1532 1533 1533 1534 1534 1534 1534 1534 1535 1535 1536 1536 1536 1537 1537 1538 1538 1539 1539 1539 1539 1539 1539 1539 1539 1539 1539 1539 1539 1539 1539 1540 1539 1539 1539 1539 1539 1539 1539 1539 1539 1539
1530 1530 1531 1532 1532 1532 1532 1532 1532 1533 1533 1533 1534 1534 1535 1535 1536 1536 1537 1537 1537 1537 1537 1537 1537 1537 1537 1537 1537 1537 1537 1537 1538 1538 1538 1537 1537 1537 1537 1537 1538 1538 1537
1528 1529 1529 1530 1531 1531 1531 1531 1531 1531 1531 1531 1532 1532 1532 1533 1533 1534 1535 1535 1535 1535 1535 1535 1535 1535 1535 1535 1535 1535 1535 1535 1535 1535 1535 1535 1535 1535 1535 1535 1535 1536 1536
1526 1527 1528 1528 1529 1529 1529 1529 1529 1529 1529 1529 1530 1530 1530 1531 1531 1532 1532 1533 1533 1533 1533 1533 1533 1533 1532 1532 1532 1533 1533 1533 1533 1533 1533 1533 1533 1533 1533 1533 1533 1533 1533
1525 1526 1526 1527 1527 1528 1528 1528 1528 1528 1528 1528 1528 1528 1528 1529 1529 1530 1530 1531 1531 1531 1531 1531 1531 1531 1530 1530 1530 1530 1530 1531 1531 1531 1531 1531 1531 1531 1531 1531 1531 1531 1531
1524 1524 1525 1525 1526 1526 1526 1526 1526 1526 1526 1526 1526 1527 1527 1527 1528 1528 1528 1528 1528 1529 1529 1529 1528 1528 1528 1528 1528 1528 1528 1528 1528 1528 1529 1529 1529 1529 1529 1529 1529 1529 1528
1522 1523 1523 1524 1524 1524 1524 1525 1525 1524 1524 1524 1525 1525 1525 1525 1526 1526 1526 1525 1526 1526 1526 1526 1526 1526 1526 1526 1525 1525 1525 1526 1526 1526 1526 1526 1526 1526 1526 1526 1526 1526 1526
1521 1521 1522 1522 1522 1522 1522 1522 1522 1522 1522 1523 1523 1523 1523 1523 1523 1523 1523 1523 1523 1523 1524 1524 1524 1523 1523 1523 1523 1523 1523 1523 1523 1523 1523 1523 1523 1523 1524 1524 1524 1524 1524
1519 1519 1520 1520 1520 1520 1520 1520 1520 1520 1520 1520 1520 1520 1520 1520 1520 1521 1521 1521 1520 1521 1521 1521 1521 1521 1521 1520 1520 1520 1520 1520 1520 1520 1520 1520 1520 1520 1520 1521 1521 1521 1522
1517 1517 1517 1517 1517 1518 1518 1518 1518 1518 1517 1518 1517 1517 1517 1517 1517 1518 1518 1518 1518 1518 1518 1518 1518 1518 1518 1518 1518 1517 1517 1517 1517 1517 1518 1517 1517 1517 1518 1518 1518 1518 1518
1515 1515 1516 1515 1516 1516 1516 1516 1516 1516 1515 1515 1515 1514 1514 1515 1515 1515 1515 1515 1515 1515 1515 1515 1515 1515 1515 1515 1515 1514 1514 1514 1514 1514 1515 1514 1514 1514 1515 1515 1515 1515 1515
1513 1513 1514 1514 1513 1513 1513 1513 1513 1513 1513 1512 1512 1512 1512 1512 1512 1513 1513 1513 1513 1513 1513 1513 1512 1512 1512 1512 1511 1511 1511 1511 1511 1511 1511 1511 1511 1511 1511 1512 1512 1511 1511
1511 1511 1511 1511 1511 1511 1511 1511 1511 1510 1510 1510 1510 1510 1510 1510 1510 1510 1510 1510 1510 1510 1510 1510 1509 1509 1509 1508 1508 1508 1508 1508 1507 1507 1507 1507 1507 1507 1507 1508 1508 1507 1507
1509 1508 1508 1508 1508 1508 1508 1508 1508 1507 1507 1507 1507 1507 1507 1508 1508 1508 1508 1507 1507 1507 1507 1507 1506 1506 1505 1505 1504 1504 1504 1504 1504 1504 1503 1503 1503 1503 1503 1504 1504 1503 1504
1507 1506 1506 1506 1505 1505 1505 1505 1505 1505 1505 1505 1505 1505 1505 1505 1506 1505 1505 1505 1505 1504 1504 1504 1503 1502 1502 1502 1501 1501 1501 1501 1501 1500 1500 1499 1499 1499 1499 1499 1499 1499 1499
1504 1504 1503 1503 1503 1502 1502 1502 1502 1502 1502 1502 1502 1502 1502 1503 1503 1503 1503 1502 1502 1502 1501 1501 1500 1499 1498 1498 1497 1497 1497 1497 1497 1497 1496 1496 1495 1495 1495 1494 1495 1495 1495
1502 1501 1500 1500 1500 1500 1499 1499 1499 1499 1499 1499 1500 1500 1500 1500 1500 1500 1500 1500 1499 1498 1498 1497 1496 1496 1495 1494 1494 1494 1494 1493 1493 1493 1492 1492 1491 1491 1490 1490 1490 1491 1491
1499 1498 1498 1497 1496 1497 1497 1497 1497 1497 1497 1497 1497 1498 1497 1497 1497 1497 1496 1496 1496 1495 1494 1494 1493 1492 1491 1491 1490 1490 1489 1489 1489 1489 1488 1488 1488 1487 1487 1486 1486 1486 1486
1496 1495 1495 1494 1494 1494 1494 1494 1494 1494 1495 1495 1494 1494 1494 1494 1493 1493 1493 1492 1491 1490 1490 1489 1489 1488 1487 1487 1486 1486 1485 1485 1485 1485 1484 1484 1483 1483 1483 1482 1482 1482 1482